{"data":{"norad_id":64239,"intl_designator":"2025-119G","name":"STARLINK-11683 [DTC]","alt_names":[],"object_type":"PAYLOAD","status":"ACTIVE","operator":null,"country":"US","launch_date":"2025-06-03","launch_site_code":"AFETR","launch_vehicle":null,"mission":null,"orbit_class":"UNKNOWN","rcs_meters":null,"size_class":null,"mass_kg":null,"dimensions":null,"purposes":["comms"],"wikipedia_slug":null,"has_3d_model":false,"image_url":null,"decayed_at":null,"tle_current":{"epoch":"2026-09-19T21:46:31.493280Z","epoch_age_seconds":188763,"freshness":"STALE","line1":"1 64239U 25119G   26262.90730895  .00173453  00000+0  13218-2 0  9990","line2":"2 64239  43.0010 118.1170 0000572 212.9973 147.0859 15.70937925 75790","mean_motion":15.70937925,"eccentricity":5.72e-5,"inclination_deg":43.001,"raan_deg":118.117,"arg_perigee_deg":212.9973,"mean_anomaly_deg":147.0859,"bstar":0.0013218,"rev_number":7579,"period_min":91.6649841527,"perigee_km":355.82998318563,"apogee_km":356.60039307595,"semimajor_km":6734.3521881308,"source":"CELESTRAK","updated_at":"2026-09-21T09:00:35.277257Z"}}}